Погода в Криворожье

Россия / Ростовская область     48°50′58″N   40°45′52″E
темп.,
°C
ветер,
м/с
пор.,
м/с
влажн.,
%
обл.,
%
осадки,
мм/ч
давл.,
гПа
погр.,
м
27 октября, ср
ср2700:00+1ююз22495 0.0 103322
03:000ююз22515 0.0 103217
06:000ююз22525 0.0 103117
09:00+3ююз34385 0.0 1031222
12:00+8ю44260 0.0 1029686
15:00+10ю34230 0.0 1027834
18:00+5ю33320 0.0 102621
21:00+4ююз22390 0.0 102517
28 октября, чт
чт2800:00+2юз22452 0.0 102511
03:00+2юз22490 0.0 102410
06:00+1зюз115020 0.0 102410
09:00+5з2337100 0.0 1024137
12:00+10з3428100 0.0 1023649
15:00+10з4540100 0.0 1021687
18:00+8зюз3555100 0.0 102188
21:00+7зюз486788 0.0 1021180
29 октября, пт
пт2900:00+7зюз41082100 0.8 1020374
03:00+7з4886100 1.5 1020342
06:00+7сз388957 0.0 1021271
09:00+8ссз4989100 0.1 1023366
12:00+10ссв687997 0.1 1025727
15:00+10ссв5771100 0.1 1027677
18:00+9св596514 0.0 1029549
21:00+6св35735 0.0 103164
30 октября, сб
сб3000:00+4ссв36775 0.0 103287
03:00+3св33825 0.0 103337
06:00+2в33902 0.0 103542
09:00+5в35780 0.0 1036250
12:00+9в34545 0.0 1035770
15:00+10в44450 0.0 1034949
18:00+6в34564 0.0 103548
21:00+4вюв33642 0.0 103645
31 октября, вс
вс3100:00+3вюв33703 0.0 103630
03:00+2в33730 0.0 103626
06:00+1в22751 0.0 103522
09:00+4вюв35600 0.0 1035190
12:00+10вюв45460 0.0 1034603
15:00+11вюв45420 0.0 1032842
18:00+7в46580 0.0 103186
21:00+5в37670 0.0 1031123